Probability
3 3 3 29 32 39 39 29 45 39 42 48 42 42 55 58 61 55 65 55 61 71 61 68 71 71 74 71 74 74 74 58 55 58 48 48 55 52 58 55 52 58 52
0 6 13 26 26 32 32 29 39 35 35 35 39 32 32 39 45 42 42 58 58 52 48 58 58 61 58 58 74 65 48 52 45 48 45 45 55 48 58 55 52 61 58
3 10 10 23 19 26 26 29 32 32 26 26 26 32 32 32 35 39 39 42 42 45 48 48 42 35 35 52 52 55 48 39 45 42 39 32 35 45 58 52 42 55 65
0 3 3 23 26 19 26 23 26 13 19 23 19 26 19 23 26 32 35 35 32 39 35 39 45 39 39 45 42 45 52 52 42 39 35 35 35 42 58 55 52 45 52
3 3 10 19 13 16 16 19 23 23 16 16 16 16 13 16 23 19 29 35 32 32 45 45 45 39 45 39 45 35 45 45 39 35 39 45 58 52 55 55 58 52 45
3 3 6 16 16 10 13 10 16 19 16 16 16 19 16 19 23 19 26 32 32 29 23 35 42 35 35 32 32 39 32 26 29 29 32 35 48 45 48 55 45 48 42
0 3 3 13 10 10 10 10 10 13 13 13 13 13 16 16 19 26 26 26 29 26 23 23 39 32 29 32 35 35 29 26 23 26 35 39 48 55 45 39 35 39 42
0 3 3 6 6 10 13 13 10 13 16 13 13 13 13 10 16 19 19 23 26 23 23 23 26 29 29 26 26 35 26 29 23 23 32 39 45 42 32 32 42 42 42
3 3 3 3 3 6 10 10 13 13 16 13 13 13 10 13 23 16 10 19 19 23 23 16 19 19 16 19 29 26 26 26 23 23 19 35 39 42 42 39 45 42 42
3 3 3 3 0 3 3 0 6 10 6 6 6 3 6 10 6 3 3 10 13 13 13 16 16 16 16 23 29 32 26 32 19 23 29 32 39 45 35 42 42 42 42
3 3 3 3 3 3 3 0 0 0 0 0 3 3 3 3 0 3 3 6 13 6 6 3 10 16 19 26 26 23 19 23 19 23 29 35 42 42 35 35 32 39 32
3 3 3 3 3 3 0 0 0 0 0 0 3 3 3 3 3 3 0 3 3 3 3 3 6 6 10 16 16 10 16 13 26 23 26 39 39 45 39 35 32 32 32
3 3 0 3 3 0 0 0 0 0 0 0 0 0 3 0 0 0 3 3 0 0 3 3 3 3 3 16 19 16 10 16 23 26 19 29 35 32 32 35 35 32 32
0 0 0 0 0 0 0 0 0 0 0 0 0 0 0 0 0 0 0 0 0 0 3 3 10 6 10 6 13 13 13 13 23 26 26 32 32 32 32 32 35 35 32
0 0 0 0 0 0 0 0 0 0 0 0 3 0 0 0 0 0 0 0 0 0 0 10 6 3 6 6 6 10 10 10 13 10 26 23 23 26 35 35 35 32 32
0 0 0 0 0 0 0 0 0 0 3 0 3 0 0 0 0 0 0 0 0 0 3 3 3 10 10 13 16 10 10 13 16 13 16 19 16 19 23 35 32 26 26
0 0 0 0 0 0 0 0 0 0 0 0 3 0 0 0 0 0 0 0 0 0 3 3 0 10 13 16 13 16 19 13 10 13 13 16 13 10 23 23 16 23 23
0 0 0 0 0 0 0 0 0 0 3 0 0 3 0 0 0 0 0 0 0 0 3 3 3 10 13 16 10 13 19 19 6 3 6 13 13 10 10 6 6 6 13
0 0 0 0 0 0 0 0 0 0 3 0 0 0 0 0 0 0 0 0 0 3 6 0 3 0 10 13 13 16 10 13 10 6 3 6 10 10 6 6 6 6 6
0 0 0 0 0 0 0 0 0 0 0 0 0 0 0 0 0 0 0 0 0 0 10 6 16 16 10 6 0 6 13 16 10 13 6 10 3 3 3 3 3 0 3
0 0 0 0 0 0 0 0 0 0 0 0 0 0 0 0 0 0 0 0 0 0 0 0 3 10 6 3 6 6 6 6 13 16 10 3 3 0 3 0 0 0 3
0 0 0 0 0 0 0 0 0 0 0 0 3 0 0 3 3 0 3 0 0 0 0 0 0 10 0 0 3 6 3 10 10 6 6 6 0 0 0 0 0 0 3
3 0 0 0 0 0 0 0 0 0 0 0 0 0 0 3 3 0 0 0 0 0 3 0 0 0 6 3 0 0 6 6 13 3 3 0 3 3 0 0 0 0 0
3 3 3 0 0 0 0 0 0 0 0 0 0 0 0 0 0 0 0 0 0 0 0 0 0 3 6 6 3 3 6 3 3 6 6 6 3 0 0 0 0 0 0
3 3 3 3 0 0 0 0 0 0 0 0 0 0 0 0 3 0 0 0 0 0 0 0 3 6 6 6 10 6 0 6 3 3 3 3 0 0 0 0 0 0 0
3 3 3 3 3 0 0 0 0 0 0 0 0 0 0 0 0 0 0 0 0 0 0 0 0 3 6 6 10 10 6 3 3 0 3 0 3 0 0 0 0 0 0
Height
5892 5891 5890 5889 5889 5888 5888 5888 5887 5887 5886 5886 5886 5885 5885 5885 5884 5884 5884 5884 5885 5885 5885 5885 5886 5886 5887 5887 5888 5889 5890 5891 5891 5892 5893 5893 5894 5895 5895 5896 5897 5897 5897
5892 5890 5890 5889 5889 5888 5887 5887 5886 5886 5885 5885 5885 5885 5884 5884 5884 5884 5883 5883 5883 5884 5884 5884 5884 5885 5886 5886 5887 5888 5889 5889 5890 5891 5892 5893 5893 5894 5895 5895 5896 5896 5897
5891 5890 5889 5888 5888 5887 5887 5886 5885 5885 5884 5884 5883 5883 5883 5883 5883 5883 5882 5882 5882 5882 5882 5883 5883 5884 5884 5885 5886 5886 5887 5888 5889 5890 5891 5892 5892 5893 5894 5894 5894 5895 5896
5890 5889 5888 5888 5887 5887 5886 5885 5884 5884 5883 5883 5882 5882 5882 5882 5882 5881 5881 5881 5880 5881 5881 5881 5881 5882 5882 5883 5884 5885 5886 5887 5888 5889 5890 5890 5891 5892 5892 5893 5894 5894 5895
5889 5888 5887 5887 5886 5886 5885 5884 5884 5883 5882 5882 5881 5881 5881 5881 5880 5880 5880 5879 5879 5879 5879 5879 5879 5880 5880 5881 5882 5883 5884 5885 5886 5887 5888 5889 5890 5891 5891 5892 5893 5893 5894
5888 5887 5886 5886 5886 5885 5884 5884 5883 5882 5882 5881 5881 5880 5880 5879 5879 5878 5878 5878 5878 5878 5877 5877 5877 5878 5878 5879 5880 5881 5882 5883 5885 5886 5887 5888 5889 5889 5890 5891 5892 5892 5893
5887 5886 5885 5885 5885 5884 5884 5883 5882 5881 5881 5880 5880 5879 5879 5878 5878 5877 5877 5876 5876 5876 5876 5875 5876 5876 5877 5877 5878 5879 5880 5882 5883 5884 5885 5886 5887 5888 5889 5890 5891 5891 5892
5886 5885 5885 5884 5884 5883 5883 5882 5881 5880 5880 5879 5879 5878 5877 5877 5876 5876 5876 5875 5875 5875 5874 5874 5874 5874 5875 5876 5877 5878 5879 5880 5881 5882 5884 5885 5886 5887 5888 5889 5889 5890 5891
5884 5883 5883 5883 5882 5882 5881 5881 5880 5879 5879 5878 5878 5877 5877 5876 5875 5875 5874 5874 5873 5873 5872 5872 5872 5872 5873 5874 5875 5876 5877 5878 5880 5881 5882 5883 5884 5885 5886 5887 5888 5889 5889
5882 5882 5882 5882 5881 5881 5880 5880 5879 5878 5878 5877 5876 5876 5875 5875 5874 5873 5873 5872 5872 5871 5871 5871 5870 5871 5872 5873 5874 5875 5876 5877 5878 5879 5880 5881 5882 5883 5884 5885 5886 5887 5888
5881 5881 5881 5880 5880 5880 5879 5879 5878 5878 5877 5876 5875 5875 5874 5874 5873 5872 5871 5871 5870 5870 5869 5869 5869 5869 5870 5871 5872 5873 5874 5875 5876 5877 5878 5879 5880 5881 5882 5883 5884 5885 5886
5880 5880 5880 5879 5879 5879 5879 5878 5877 5877 5876 5875 5874 5874 5873 5872 5871 5871 5870 5869 5869 5869 5868 5868 5868 5868 5869 5870 5871 5872 5873 5874 5875 5875 5876 5877 5878 5879 5880 5881 5882 5883 5884
5879 5879 5879 5879 5878 5878 5878 5877 5876 5876 5875 5874 5874 5873 5872 5872 5871 5870 5869 5868 5868 5868 5867 5867 5867 5867 5868 5869 5869 5870 5871 5872 5873 5874 5874 5875 5876 5877 5879 5880 5881 5882 5882
5879 5878 5878 5878 5878 5877 5877 5877 5876 5875 5875 5874 5873 5873 5872 5871 5870 5869 5868 5868 5867 5867 5867 5866 5866 5866 5867 5868 5869 5869 5870 5871 5872 5872 5873 5874 5875 5876 5877 5878 5879 5880 5880
5878 5877 5877 5877 5877 5877 5876 5876 5875 5875 5874 5874 5873 5872 5872 5871 5870 5869 5868 5868 5867 5867 5866 5866 5866 5866 5867 5868 5868 5869 5869 5870 5871 5871 5872 5873 5874 5874 5875 5876 5877 5878 5878
5876 5876 5876 5876 5876 5876 5876 5875 5875 5874 5874 5873 5873 5872 5872 5871 5870 5869 5868 5868 5867 5867 5867 5866 5867 5867 5867 5868 5868 5869 5869 5869 5870 5871 5871 5872 5873 5873 5874 5875 5875 5876 5877
5875 5875 5875 5875 5875 5875 5875 5875 5875 5874 5874 5873 5872 5872 5871 5871 5870 5869 5868 5868 5867 5867 5867 5867 5867 5867 5867 5868 5868 5868 5869 5869 5869 5870 5871 5871 5872 5873 5873 5874 5874 5875 5875
5874 5874 5874 5875 5875 5875 5875 5875 5874 5874 5873 5873 5872 5872 5871 5871 5870 5869 5868 5868 5867 5867 5867 5867 5867 5867 5868 5868 5868 5868 5869 5869 5869 5870 5870 5871 5871 5872 5872 5873 5873 5873 5874
5874 5874 5874 5874 5874 5874 5874 5874 5874 5874 5873 5872 5872 5872 5871 5871 5870 5869 5869 5868 5867 5867 5867 5867 5867 5868 5868 5869 5869 5869 5869 5869 5869 5870 5870 5870 5871 5871 5871 5872 5872 5872 5873
5873 5873 5873 5873 5874 5874 5874 5874 5874 5873 5873 5872 5872 5871 5871 5871 5870 5869 5869 5868 5868 5868 5868 5868 5868 5868 5869 5869 5869 5869 5869 5869 5870 5870 5870 5870 5870 5870 5871 5871 5871 5872 5872
5872 5872 5872 5873 5873 5873 5873 5874 5873 5873 5873 5872 5872 5871 5871 5871 5870 5869 5869 5869 5869 5869 5869 5869 5869 5869 5869 5869 5870 5870 5870 5870 5870 5870 5870 5870 5870 5870 5870 5870 5870 5871 5871
5870 5871 5871 5872 5872 5873 5873 5873 5873 5873 5873 5872 5872 5871 5871 5871 5870 5870 5869 5869 5869 5869 5869 5870 5870 5870 5870 5870 5870 5870 5870 5871 5870 5869 5870 5870 5870 5870 5870 5869 5869 5870 5870
5869 5870 5870 5870 5871 5872 5872 5872 5873 5872 5872 5872 5872 5872 5872 5871 5871 5870 5870 5870 5870 5870 5870 5870 5871 5871 5871 5871 5871 5871 5871 5870 5870 5870 5870 5870 5870 5870 5870 5869 5869 5869 5869
5868 5868 5869 5869 5870 5871 5871 5872 5872 5872 5872 5872 5872 5872 5872 5871 5871 5871 5871 5871 5871 5871 5871 5871 5871 5871 5871 5871 5871 5871 5871 5871 5870 5870 5870 5870 5870 5870 5869 5869 5869 5868 5868
5866 5867 5868 5868 5869 5870 5871 5871 5871 5872 5872 5872 5872 5872 5872 5872 5871 5871 5871 5871 5871 5872 5872 5872 5872 5872 5872 5872 5872 5872 5871 5871 5871 5871 5870 5870 5870 5869 5869 5868 5868 5868 5867
5865 5866 5867 5867 5868 5869 5870 5870 5871 5871 5871 5872 5872 5872 5872 5872 5872 5872 5872 5872 5872 5872 5873 5873 5873 5873 5873 5873 5873 5872 5872 5872 5871 5871 5870 5870 5870 5869 5869 5868 5868 5867 5867
Wind_Speed
1 1 1 1 0 1 1 1 2 1 1 1 2 2 3 3 3 3 3 4 5 5 5 5 5 6 7 7 8 8 8 9 8 8 8 8 8 7 7 7 8 9 9
1 1 0 1 1 2 2 2 2 2 3 3 3 3 4 4 4 4 4 4 5 6 7 6 6 7 7 8 8 8 9 9 9 9 9 8 8 8 8 8 8 9 9
2 1 2 2 2 2 2 3 3 3 4 4 4 4 4 5 5 5 5 5 6 6 7 7 7 7 8 8 9 9 9 10 10 10 10 9 9 9 8 8 8 9 9
3 3 3 2 2 3 4 5 4 4 5 5 4 5 5 5 6 6 6 6 6 7 7 7 8 8 8 9 9 9 10 10 11 11 11 10 9 9 8 8 8 9 9
4 4 4 3 3 4 5 5 5 5 5 5 5 5 5 5 6 7 7 6 6 7 7 7 8 9 9 10 10 10 10 10 11 11 11 11 10 10 9 9 9 10 10
5 5 4 3 4 5 5 5 5 5 5 5 5 5 5 5 6 6 5 6 6 7 7 7 8 9 9 10 10 10 11 11 11 11 12 11 11 11 10 10 9 10 10
6 5 4 4 5 5 5 5 5 5 5 5 5 5 5 5 6 5 5 5 7 7 7 7 7 8 9 9 10 10 11 11 12 12 12 11 11 11 11 11 10 10 10
7 6 4 5 6 6 6 6 6 6 5 5 5 5 5 5 5 5 5 5 6 6 7 7 7 7 8 9 10 10 10 11 11 11 12 12 12 12 12 12 12 11 10
7 6 5 5 6 6 6 6 5 5 5 5 5 5 5 5 5 5 5 5 5 6 6 7 7 8 8 9 9 10 10 10 10 11 11 12 12 12 12 12 12 12 11
6 5 5 6 5 5 6 6 5 6 5 5 5 4 4 5 5 4 5 5 5 5 6 6 7 8 8 8 9 9 9 9 10 10 11 11 12 12 12 12 12 12 12
6 5 5 5 5 5 5 6 5 5 4 5 5 4 4 4 5 4 5 5 5 5 4 5 6 7 8 8 9 9 9 9 9 10 11 11 11 12 12 12 12 12 12
6 5 5 5 5 5 4 4 4 4 4 4 4 3 4 4 4 4 4 4 4 4 3 3 4 7 8 8 8 8 9 9 9 9 10 10 11 12 12 12 12 12 12
5 5 5 5 5 5 4 4 4 4 3 3 2 2 2 3 3 3 3 3 3 4 3 3 4 5 6 7 7 7 7 8 8 8 8 9 10 11 11 11 11 11 12
5 5 5 5 5 5 4 3 3 4 3 2 2 2 2 2 2 1 1 2 2 3 3 3 3 4 5 6 6 6 6 7 7 7 8 8 9 10 10 10 11 12 12
6 6 6 5 5 4 4 3 3 3 2 2 3 2 2 1 1 1 0 0 1 2 2 2 2 4 4 5 6 6 6 7 7 7 7 7 8 8 9 10 10 10 11
6 6 6 5 5 4 4 3 3 2 2 2 2 2 1 1 1 1 1 0 1 1 2 2 3 3 4 5 5 5 5 6 6 6 7 7 7 8 8 9 9 10 10
6 6 6 5 5 4 3 3 2 2 2 2 1 1 1 1 0 0 0 0 1 1 2 2 3 3 4 4 4 4 5 5 5 5 5 6 6 7 7 8 8 8 9
6 6 6 5 5 4 4 3 2 2 1 1 1 1 1 1 0 0 0 1 1 2 2 2 3 4 4 4 3 3 4 4 5 5 4 4 5 6 6 6 7 8 8
6 6 6 6 6 5 4 3 3 2 1 1 1 1 1 0 0 1 1 1 1 2 2 3 4 4 4 4 3 3 3 4 4 5 5 4 5 5 6 6 6 7 7
7 7 7 7 6 5 4 4 3 2 1 1 1 1 0 1 1 1 1 1 2 2 3 3 4 5 4 4 3 3 3 3 4 4 4 4 5 5 6 6 6 6 7
7 7 8 7 7 6 5 4 3 2 1 2 1 1 1 1 1 1 1 2 2 3 4 4 4 5 5 4 3 2 2 2 3 4 4 4 5 5 5 5 6 6 6
8 8 8 8 7 6 5 5 4 3 2 2 2 2 2 2 2 2 3 3 3 3 4 4 4 4 4 3 2 2 2 2 2 3 4 4 4 4 5 4 4 5 5
8 8 8 8 8 7 6 5 4 3 3 2 2 2 2 2 2 3 3 3 3 3 4 4 4 4 4 3 2 2 2 1 1 3 3 3 3 3 4 3 4 5 6
9 8 8 8 8 7 6 5 4 4 3 2 2 3 2 2 2 3 3 3 3 3 4 4 4 4 4 4 3 3 2 1 2 2 2 2 2 3 3 4 5 5 5
9 9 9 9 8 8 7 6 5 4 4 3 2 3 2 2 3 3 3 3 3 4 4 4 4 4 4 4 3 3 2 2 2 2 1 2 2 2 3 3 3 3 3
10 10 10 10 9 8 7 7 6 5 5 4 3 3 3 3 4 4 4 3 3 4 4 4 4 3 3 3 2 2 1 1 1 1 1 1 0 1 2 3 3 3 3
Wind_Direction
355 2 1 351 296 215 278 286 261 261 266 271 277 257 260 249 232 235 239 239 240 238 234 232 226 222 221 220 220 221 220 221 219 218 218 219 219 221 220 218 221 220 220
292 319 316 267 266 254 259 280 269 266 277 269 266 262 269 263 258 256 255 246 245 242 240 238 233 231 226 223 223 223 224 224 225 223 223 221 221 223 223 225 225 222 221
280 272 283 279 258 265 261 276 278 276 283 279 272 263 264 262 263 265 261 254 245 241 243 242 238 237 232 228 228 229 227 229 229 226 223 222 224 226 227 225 221 217 218
266 268 265 272 275 275 277 276 269 274 282 281 280 270 269 271 266 265 262 258 249 244 245 244 243 241 237 232 232 233 232 231 229 227 224 223 225 225 225 225 223 215 217
265 262 263 259 267 269 275 267 273 279 282 284 291 288 277 276 276 271 263 257 251 249 248 243 241 239 234 231 230 230 231 229 227 224 224 223 223 223 223 223 224 219 220
267 264 259 269 264 263 264 267 268 272 278 285 289 286 286 283 283 276 264 259 254 253 249 244 239 237 232 230 228 228 227 226 224 222 223 223 222 222 223 223 224 222 223
267 266 256 266 264 262 263 262 265 273 281 283 283 286 284 285 282 271 272 270 260 254 249 245 240 235 230 227 225 224 223 226 226 225 224 225 224 225 225 225 225 223 222
262 257 256 266 267 261 269 266 270 278 283 279 278 280 283 280 276 273 275 272 262 254 250 250 243 233 228 225 224 224 225 226 223 224 225 227 227 227 228 228 229 227 225
261 255 259 263 267 267 267 272 274 277 279 280 277 276 275 271 272 274 270 270 265 258 253 252 244 236 231 228 225 224 226 222 219 222 224 226 226 226 228 228 230 231 226
260 257 261 266 270 272 273 277 277 281 279 280 279 275 271 274 276 271 268 266 265 260 253 251 244 235 231 228 224 224 223 219 220 222 224 225 225 226 228 228 231 232 229
264 261 260 267 266 269 271 274 277 283 286 288 278 277 280 285 284 276 267 263 260 258 256 245 238 229 226 223 221 220 221 222 224 225 225 225 225 227 228 228 231 233 232
264 261 253 257 258 268 272 274 278 286 288 290 283 277 288 292 291 284 269 255 252 253 250 239 233 224 220 216 216 218 220 223 224 222 225 226 226 227 227 229 232 233 233
265 261 250 251 257 261 268 276 288 289 286 286 285 290 290 303 299 286 266 250 248 246 237 235 233 222 216 212 212 216 220 221 221 219 225 227 226 227 227 230 232 233 235
261 257 253 252 256 256 257 271 288 295 284 283 273 288 283 302 313 278 259 249 245 242 235 231 229 220 209 205 210 217 221 218 219 219 223 227 227 226 225 229 233 234 234
262 257 248 247 246 246 247 260 279 292 291 282 266 269 275 267 338 7 4 275 233 233 232 218 206 205 201 201 205 214 216 216 217 219 226 230 227 223 226 231 234 239 238
261 255 247 245 240 235 236 247 275 288 292 293 282 257 273 281 310 6 23 139 187 213 218 195 190 186 190 191 198 205 209 211 217 222 226 227 221 221 228 229 234 235 237
259 252 243 241 234 229 228 237 250 280 281 283 267 261 271 297 40 40 70 161 183 171 176 172 164 170 178 185 192 200 207 210 213 216 217 217 217 219 227 231 231 231 235
253 247 241 237 231 224 226 231 236 260 263 253 256 264 259 275 315 70 112 130 148 150 155 157 156 157 165 176 180 187 199 204 200 202 206 213 219 222 227 232 231 231 232
253 248 239 232 231 229 230 231 236 246 243 242 264 248 244 224 142 122 123 129 134 140 142 153 150 155 158 163 166 170 180 188 192 199 206 214 220 225 228 233 234 237 234
254 247 234 227 229 229 231 228 236 257 233 220 214 210 183 139 101 98 117 132 137 134 132 139 145 149 150 155 159 163 168 181 195 206 209 212 217 225 230 234 235 237 237
251 241 229 224 227 228 226 222 233 239 219 206 181 136 149 123 91 101 128 115 128 130 133 129 138 140 141 151 164 172 182 199 212 217 228 225 222 232 235 234 238 242 242
245 234 229 226 225 226 228 228 229 233 232 217 162 150 137 121 106 101 125 128 128 130 137 138 137 143 150 155 164 182 193 213 203 204 218 225 227 229 231 242 242 248 252
242 236 233 226 223 224 225 225 227 229 217 201 182 174 149 134 117 111 118 125 131 129 132 140 141 142 142 142 137 158 185 175 179 193 199 211 219 230 240 247 254 260 263
241 238 231 225 222 220 222 225 227 211 205 204 203 192 170 150 145 136 130 127 127 133 137 135 140 145 139 134 125 124 139 147 162 181 197 214 231 238 246 256 256 256 260
237 234 230 223 222 220 223 224 222 217 214 206 197 184 174 163 159 144 138 129 128 134 136 135 136 139 137 132 124 114 114 113 126 147 168 209 228 244 250 264 271 270 272
233 231 226 222 221 224 225 226 225 220 211 206 193 180 172 161 158 148 140 138 136 142 143 142 139 139 131 124 122 117 89 86 124 111 122 160 247 281 283 292 296 297 285